Preview of NWS' New Version of Forecast
This preview is not operational and should not be used for support decisions.
Latest weather observations around

Merced Regional Airport (KMCE)

Using English Units (Switch to International System of Units)
Date/ Time (PDT) Wind (mph) Vis. (mi) Weather Sky Cond. Temp (°F) Rel. Humidity Wind Chill (°F) Heat Index (°F) Pressure Precip. (in)
Air Dwpt 6 hour Altimeter (inHg) Sea level (inHg) 1 hr 3 hr 6 hr
Max Min
Apr 20 19:53 W 9 10 Clear   58 48     70%     29.93 29.93      
Apr 20 18:53 WSW 14 10 Clear   63 48     58%     29.91 29.91      
Apr 20 17:53 WSW 15 10 Clear CLR 68 49     50%     29.9 29.9      
Apr 20 17:00 W 14 10 Mostly Clear FEW002 70 52     53%     29.89        
Apr 20 16:53 WSW 14 10 Clear CLR 70 52     53%     29.89 29.88      
Apr 20 15:53 W 11 10 Clear CLR 73 53     50%   72 29.9 29.89      
Apr 20 14:53 WSW 15 10 Mostly Cloudy BKN044 75 54     48%   74 29.9 29.9      
Apr 20 13:53 5 10 Clear CLR 74 53     48%   73 29.91 29.91      
Apr 20 12:53 Calm 10 Clear CLR 70 53     55%     29.92 29.91      
Apr 20 11:53 6 10 Clear CLR 68 55     63%     29.93 29.92      
Apr 20 10:53 Calm 10 Clear CLR 62 52     70%     29.93 29.92      
Apr 20 09:53 NNW 6 10 Clear CLR 63 52     67%     29.91 29.91      
Apr 20 08:53 Calm 10 Clear CLR 59 52     78%     29.89 29.89      
Apr 20 07:53 WSW 3 10 Clear CLR 56 52     87%     29.88        
Apr 20 06:53 W 7 10 Clear CLR 53 51     93%     29.85 29.84      
Apr 20 05:53 W 7 10 Clear CLR 52 50     93%     29.82 29.81      
Apr 20 04:53 W 6 10 Mostly Cloudy BKN095 53 51     93%     29.82 29.81      
Apr 20 03:53 W 7 10 Partly Cloudy SCT100 54 51     90%     29.82        
Apr 20 02:53 W 8 10 Clear CLR 54 52     93%     29.81 29.8      
Apr 20 01:53 NW 6 10 Clear CLR 60 54     80%     29.82 29.81      
Apr 20 00:53 NW 7 10 Clear CLR 62 52     70%     29.83 29.83      
Apr 19 23:53 WNW 7 10 Clear CLR 64 54     70%     29.81 29.81      
Apr 19 22:53 WNW 7 10 Clear CLR 66 57     73%     29.8 29.8      
Apr 19 21:53 WSW 3 10 Clear CLR 66 59     78%     29.8 29.79      
Apr 19 20:53 NW 5 10 Clear   72 61     68%   72 29.78 29.78      
Apr 19 19:53 N 7 10 Clear   77 60     56%   77 29.77 29.77      
Apr 19 17:53 N 9 10 Clear   85 58     40%   84 29.78 29.78      
Apr 19 16:53 NW 8 10 Clear CLR 85 57     39%   84 29.79 29.79      
Apr 19 15:53 NNW 9 10 Clear CLR 88 56     34%   86 29.8 29.8      
Apr 19 14:53 NNW 8 10 Clear CLR 86 58     39%   85 29.83 29.83      
Apr 19 13:53 NW 6 10 Clear CLR 83 56     40%   82 29.85 29.85      
Apr 19 12:53 6 10 Clear CLR 83 57     41%   82 29.87 29.87      
Apr 19 11:53 NNW 3 10 Clear CLR 80 52     38%   80 29.9 29.89      
Apr 19 10:53 Calm 10 Clear CLR 73 58     59%   73 29.92 29.91      
Apr 19 09:53 Calm 8 Clear CLR 68 58     70%     29.93 29.93      
Apr 19 08:53 3 6 Haze CLR 65 58     78%     29.95 29.94      
Apr 19 07:53 NNW 3 4 Fog/Mist CLR 60 56     86%     29.95 29.94      
Apr 19 06:53 Calm 4 Fog/Mist CLR 52 50     93%     29.94 29.94      
Apr 19 05:53 Calm 5 Fog/Mist CLR 53 52     96%     29.94 29.94      
Apr 19 04:53 Calm 4 Fog/Mist CLR 54 52     93%     29.95 29.94      
Apr 19 03:53 NNE 3 7 Clear CLR 59 56     90%     29.96 29.96      
Apr 19 02:53 NW 5 7 Clear CLR 60 57     90%     29.98 29.97      
Apr 19 01:53 Calm 7 Clear CLR 59 55     87%     29.99 29.99      
Apr 19 00:53 WSW 5 9 Clear CLR 61 55     81%     30.01 30.01      
Apr 18 23:53 Calm 10 Clear CLR 67 58     73%     30.01 30      
Apr 18 22:53 NW 3 10 Clear CLR 68 58     70%     30.01 30      
Apr 18 21:53 NW 5 10 Clear CLR 67 56     68%     30.01 30.01      
Apr 18 20:53 NNW 5 10 Clear CLR 72 58     61%   72 30 30      
Apr 18 19:53 N 3 10 Clear CLR 76 56     50%   76 29.99 29.98      
Apr 18 18:53 NW 3 10 Clear CLR 80 58     47%   80 29.99 29.99      
Apr 18 17:53 NW 5 10 Clear CLR 82 53     37%   81 30 30      
Apr 18 16:53 3 10 Clear CLR 85 53     34%   83 30.02 30.01      
Apr 18 15:53 SSE 3 10 Clear CLR 83 53     36%   82 30.03 30.03      
Apr 18 14:53 6 10 Clear CLR 81 53     38%   80 30.06 30.06      
Apr 18 13:53 Calm 10 Clear CLR 79 53     41%   78 30.09 30.09      
Apr 18 12:53 6 10 Clear CLR 77 54     45%   77 30.11 30.11      
Apr 18 11:53 6 10 Clear CLR 75 56     52%   75 30.14 30.13      
Apr 18 10:53 6 10 Clear CLR 72 56     57%   72 30.15 30.14      
Apr 18 09:53 SE 5 10 Clear CLR 67 55     66%     30.15 30.15      
Apr 18 08:53 ESE 3 10 Clear CLR 63 56     78%     30.16 30.16      
Apr 18 07:53 Calm 10 Clear CLR 56 54     93%     30.16 30.15      
Apr 18 06:53 Calm 8 Clear CLR 49 49     100%     30.14 30.14      
Apr 18 05:53 ESE 3 8 Clear CLR 47 46     97% 46   30.14 30.13      
Apr 18 04:53 Calm 9 Clear CLR 50 49     96%     30.13 30.13      
Apr 18 03:53 ESE 3 10 Clear CLR 50 48     93%     30.13 30.13      
Apr 18 02:53 Calm 10 Clear CLR 55 49     80%     30.13 30.13      
Apr 18 01:53 Calm 10 Clear CLR 56 51     84%     30.14 30.14      
Apr 18 00:53 Calm 10 Clear CLR 55 49     80%     30.16 30.16      
Apr 17 23:53 WSW 3 10 Clear CLR 57 52     83%     30.16 30.15      
Apr 17 22:53 Calm 10 Clear CLR 56 52     87%     30.15 30.15      
Apr 17 21:53 S 3 10 Clear CLR 61 52     72%     30.15 30.15      
Apr 17 20:53 N 3 10 Clear CLR 66 52     61%     30.14 30.13      
Apr 17 19:53 NNE 7 10 Clear CLR 69 52     54%     30.12 30.12      
May 14 17:53 NW 5 10 Clear   79 48     34%   78 29.86 29.85      
May 13 21:53   10 Clear CLR 66 50     56%     29.92 29.92      
May 13 20:53 NNW 11 10 Clear CLR 69 51     53%     29.9 29.9      
May 12 18:53 WSW 10 10 Clear CLR 74 48     40%   73 29.8 29.8      
May 11 22:53 NW 11 10 Clear CLR 67 39     36%     29.69 29.68      
May 11 08:53 NW 13 10 Clear CLR 64 51     63%     29.8 29.8      
Jun 12 03:53 Calm 10 Clear CLR 51 43     74%     30.03 30.02      
Jun 12 02:53 NW 3 10 Clear CLR 49 43     80% 48   30.02 30.01      
Jun 10 15:53 WNW 14 10 Clear CLR 77 40     26%   76 29.86 29.86      
Jun 10 08:53 NW 17 10 Clear CLR 62 42     48%     29.94 29.93      
Jun 08 13:53 NNW 13 10 Cloudy OVC080 71 41     34%   69 30 29.99      
Jun 07 09:53 NNW 9 10 Clear CLR 78 40     26%   77 29.86 29.85      
Jun 07 06:53 NNW 3 10 Clear CLR 62 45     53%     29.84 29.84